Location: Nairn
(57.5833°N, 3.8667°W)
Time: 00:00:02
(UTC+00:00)

Transit 4A - All Passes

Search period start: 06 December 2020 00:00
Search period end: 16 December 2020 00:00
Orbit: 862 x 982 km, 66.8° (Epoch: 05 December)

Date Brightness Start Highest point End Pass type
(mag) Time Alt. Az. Time Alt. Az. Time Alt. Az.
06 Dec - 05:29:06 10° SSE 05:33:24 19° ESE 05:37:44 10° ENE visible
06 Dec - 07:12:25 10° SSW 07:18:45 65° SE 07:25:07 10° NE visible
06 Dec - 08:59:09 10° WSW 09:05:26 53° NNW 09:11:44 10° NE daylight
06 Dec - 10:47:07 10° WNW 10:53:03 37° N 10:58:57 10° ENE daylight
06 Dec - 12:34:34 10° NW 12:40:47 47° NNE 12:46:52 10° E daylight
06 Dec - 14:21:15 10° NW 14:27:41 80° SW 14:33:56 10° SE daylight
06 Dec - 16:08:19 10° WNW 16:13:16 24° WSW 16:18:07 10° SSW daylight
07 Dec - 05:37:19 10° SSE 05:42:24 26° ESE 05:47:31 10° ENE visible
07 Dec - 07:21:38 10° SW 07:28:02 81° SE 07:34:30 10° NE visible
07 Dec - 09:08:47 10° W 09:14:59 47° NNW 09:21:10 10° NE daylight
07 Dec - 10:56:46 10° WNW 11:02:42 37° N 11:08:34 10° ENE daylight
07 Dec - 12:44:01 10° NW 12:50:19 54° NNE 12:56:29 10° ESE daylight
07 Dec - 14:30:39 10° NW 14:36:58 64° SW 14:43:07 10° SSE daylight
07 Dec - 16:18:09 10° WNW 16:22:14 18° WSW 16:26:16 10° SW visible
08 Dec - 05:45:50 10° S 05:51:27 34° ESE 05:57:07 10° NE visible
08 Dec - 07:30:58 10° SW 07:37:24 83° NW 07:43:52 10° NE visible
08 Dec - 09:18:28 10° W 09:24:34 42° NNW 09:30:38 10° NE daylight
08 Dec - 11:06:23 10° WNW 11:12:21 38° N 11:18:15 10° ENE daylight
08 Dec - 12:53:25 10° NW 12:59:49 63° NE 13:06:03 10° ESE daylight
08 Dec - 14:40:04 10° NW 14:46:11 49° WSW 14:52:08 10° SSE daylight
08 Dec - 16:28:25 10° WNW 16:31:08 13° W 16:33:50 10° SW visible
09 Dec - 04:14:05 10° ESE 04:15:45 11° E 04:17:26 10° E visible
09 Dec - 05:54:36 10° S 06:00:35 44° ESE 06:06:36 10° NE visible
09 Dec - 07:40:24 10° WSW 07:46:49 69° NW 07:53:15 10° NE visible
09 Dec - 09:28:10 10° W 09:34:10 39° NNW 09:40:09 10° ENE daylight
09 Dec - 11:15:56 10° NW 11:21:59 40° NNE 11:27:56 10° E daylight
09 Dec - 13:02:49 10° NW 13:09:16 75° NE 13:15:32 10° SE daylight
09 Dec - 14:49:32 10° NW 14:55:20 38° WSW 15:00:59 10° S daylight
10 Dec - 04:21:01 10° SE 04:24:38 16° ESE 04:28:15 10° ENE visible
10 Dec - 06:03:33 10° SSW 06:09:46 56° SE 06:16:02 10° NE visible
10 Dec - 07:49:56 10° WSW 07:56:17 59° NNW 08:02:38 10° NE visible
10 Dec - 09:37:52 10° WNW 09:43:49 37° N 09:49:44 10° ENE daylight
10 Dec - 11:25:27 10° NW 11:31:35 44° NNE 11:37:37 10° E daylight
10 Dec - 13:12:11 10° NW 13:18:39 90° NE 13:24:55 10° SE daylight
10 Dec - 14:59:05 10° NW 15:04:25 29° WSW 15:09:38 10° S daylight
11 Dec - 04:28:57 10° SSE 04:33:34 21° ESE 04:38:13 10° ENE visible
11 Dec - 06:12:39 10° SSW 06:19:01 71° SE 06:25:26 10° NE visible
11 Dec - 07:59:32 10° WSW 08:05:48 51° NNW 08:12:03 10° NE visible
11 Dec - 09:47:32 10° WNW 09:53:28 37° N 09:59:20 10° ENE daylight
11 Dec - 11:34:55 10° NW 11:41:09 49° NNE 11:47:15 10° E daylight
11 Dec - 13:21:35 10° NW 13:27:58 74° SW 13:34:11 10° SSE daylight
11 Dec - 15:08:46 10° WNW 15:13:26 22° WSW 15:18:01 10° SSW daylight
12 Dec - 04:37:17 10° SSE 04:42:35 28° ESE 04:47:55 10° NE visible
12 Dec - 06:21:54 10° SW 06:28:20 87° SE 06:34:49 10° NE visible
12 Dec - 08:09:12 10° W 08:15:22 45° NNW 08:21:30 10° NE daylight
12 Dec - 09:57:11 10° WNW 10:03:07 37° N 10:08:59 10° ENE daylight
12 Dec - 11:44:20 10° NW 11:50:41 57° NNE 11:56:52 10° ESE daylight
12 Dec - 13:30:59 10° NW 13:37:14 58° SW 13:43:18 10° SSE daylight
12 Dec - 15:18:42 10° WNW 15:22:23 16° WSW 15:26:00 10° SW daylight
13 Dec - 04:45:54 10° S 04:51:40 37° ESE 04:57:28 10° NE visible
13 Dec - 06:31:17 10° SW 06:37:43 78° NW 06:44:11 10° NE visible
13 Dec - 08:18:54 10° W 08:24:57 41° NNW 08:30:59 10° NE daylight
13 Dec - 10:06:46 10° WNW 10:12:45 39° N 10:18:39 10° ENE daylight
13 Dec - 11:53:45 10° NW 12:00:10 67° NE 12:06:24 10° ESE daylight
13 Dec - 13:40:25 10° NW 13:46:25 45° WSW 13:52:16 10° S daylight
13 Dec - 15:29:24 10° W 15:31:15 11° W 15:33:05 10° WSW daylight
14 Dec - 03:13:17 10° SE 03:15:52 13° E 03:18:28 10° ENE visible
14 Dec - 04:54:44 10° SSW 05:00:49 48° ESE 05:06:57 10° NE visible
14 Dec - 06:40:46 10° WSW 06:47:09 65° NW 06:53:33 10° NE visible
14 Dec - 08:28:36 10° WNW 08:34:35 38° N 08:40:31 10° ENE daylight
14 Dec - 10:16:19 10° NW 10:22:23 41° NNE 10:28:20 10° E daylight
14 Dec - 12:03:08 10° NW 12:09:35 80° NE 12:15:50 10° SE daylight
14 Dec - 13:49:54 10° NW 13:55:33 35° WSW 14:01:03 10° S daylight
15 Dec - 03:20:44 10° SE 03:24:46 18° ESE 03:28:49 10° ENE visible
15 Dec - 05:03:44 10° SSW 05:10:02 61° SE 05:16:22 10° NE visible
15 Dec - 06:50:19 10° WSW 06:56:38 55° NNW 07:02:57 10° NE visible
15 Dec - 08:38:17 10° WNW 08:44:14 37° N 08:50:06 10° ENE daylight
15 Dec - 10:25:48 10° NW 10:31:58 45° NNE 10:38:00 10° E daylight
15 Dec - 12:12:31 10° NW 12:18:57 84° SW 12:25:11 10° SE daylight
15 Dec - 13:59:30 10° WNW 14:04:36 26° WSW 14:09:36 10° SSW daylight
